"SCET";"TARGET";"ELECTRON_DENSITY";"ERROR_FLAG";"ELECTRON_DENSITY_ERROR";"FREQ_FCE";"MEASURED_VALUE";"MEASURED_ITEM";"FREQ_PLASMA";"FREQ_UPPER_HYBRID";"FREQ_R_EQUALS_ZERO";"FREQ_L_EQUALS_ZERO";"ORBIT_NUMBER";"SATURN_RADIUS";"SATURN_IAU_LONGITUDE";"SATURN_SLS4_S_LONGITUDE";"SATURN_SLS4_N_LONGITUDE";"SATURN_SLS5_S_LONGITUDE";"SATURN_SLS5_N_LONGITUDE";"SATURN_LOCAL_TIME";"SATURN_KRONOGRAPHIC_LATITUDE";"SATURN_MAGNETIC_LATITUDE";"SATURN_L";"SATURN_L_OFFSET";"SATURN_SOLAR_EQUATORIAL_X";"SATURN_SOLAR_EQUATORIAL_Y";"SATURN_SOLAR_EQUATORIAL_Z";"SATURN_ALTITUDE";"ENCELADUS_ENCOUNTER_NUMBER";"ENCELADUS_RADIUS";"ENCELADUS_COROTATIONAL_X";"ENCELADUS_COROTATIONAL_Y";"ENCELADUS_COROTATIONAL_Z";"ENCELADUS_TRUE_ANOMALY";"ENCELADUS_PERIAPSIS_TIME";"JUPITER_RADIUS";"JUPITER_SYSTEMIII_LONGITUDE";"JUPITER_MAGNETIC_LATITUDE";"JUPITER_MAGNETIC_LOCAL_TIME";"JUPITER_L";"IO_PHASE";"EARTH_RADIUS";"EARTH_MAGNETIC_LATITUDE";"EARTH_LOCAL_TIME";"EARTH_L"
"[UTC]";"[0=Saturn, 1=Enceladus, 2=Jupiter, 3=Earth]";"[cm-3]";"[0=automated, 1=manual]";"[normalized density error]";"[Hz]";"[Hz]";"[0=upper hybrid frequency, 1=plasma frequency cutoff]";"[Hz]";"[Hz]";"[Hz]";"[Hz}";"[0, A, B, C, 3, 4, ... , 292, 293]";"[Rs where 1Rs=60268km]";"[degrees]";"[degrees]";"[degrees]";"[degrees]";"[degrees]";"[hours]";"[degrees]";"[degrees where offset=2293km north]";"[Rs where 1Rs=60268km]";"[Rs where 1Rs=60268km and offset=2293km north]";"[Rs where 1Rs=60268km]";"[Rs where 1Rs=60268km]";"[Rs where 1Rs=60268km]";"[km where ellipsoid a,b=60268km and c=54364km]";"[E0, E1, E2, ... , E21, E22]";"[Renc where 1Renc=252.1km]";"[Renc where 1Renc=252.1km]";"[Renc where 1Renc=252.1km]";"[Renc where 1Renc=252.1km]";"[degrees]";"[UTC]";"[Rj where 1Rj=71492km]";"[degrees]";"[degrees using JRM09 model]";"[hours using JRM09 model]";"[Rj where 1Rj=71492km]";"[degrees]";"[Re where 1Re=6378.1366km]";"[degrees]";"[hours]";"[Re where 1Re=6378.1366km]"
2005-08-20T06:06:49.745Z;0;8.8320e+00;0;     0.078;  4598.720;  27080.873; 0;  26687.553;  27080.873;  29085.783;  24487.064; 13;   5.058; 354.615; 143.948;; 153.070;  80.638;  14.924; -11.594; -12.016;   5.271;   5.061;   3.573;   3.433;  -1.017;;;;;;;;;;;;;;;;;;
2005-08-20T06:07:05.745Z;0;8.8670e+00;0;     0.086;  4598.720;  27133.445; 0;  26740.898;  27133.445;  29138.934;  24540.213; 13;   5.056; 354.728; 144.059;; 153.183;  80.754;  14.926; -11.582; -12.003;   5.269;   5.059;   3.569;   3.434;  -1.015;;;;;;;;;;;;;;;;;;
2005-08-20T06:07:21.745Z;0;9.4630e+00;0;     0.118;  4598.720;  28003.893; 0;  27623.717;  28003.893;  30018.609;  25419.891; 13;   5.054; 354.841; 144.170;; 153.296;  80.869;  14.929; -11.570; -11.991;   5.266;   5.057;   3.566;   3.436;  -1.014;;;;;;;;;;;;;;;;;;
2005-08-20T06:07:53.745Z;0;9.4680e+00;0;     0.125;  4617.480;  28014.686; 0;  27631.531;  28014.686;  30036.557;  25419.076; 13;   5.050; 355.067; 144.392;; 153.522;  81.101;  14.934; -11.545; -11.967;   5.261;   5.053;   3.559;   3.438;  -1.011;;;;;;;;;;;;;;;;;;
2005-08-20T06:08:09.745Z;0;9.5110e+00;0;     0.142;  4617.480;  28076.068; 0;  27693.762;  28076.068;  30098.572;  25481.092; 13;   5.048; 355.180; 144.503;; 153.635;  81.216;  14.936; -11.533; -11.955;   5.258;   5.051;   3.555;   3.439;  -1.009;;;;;;;;;;;;;;;;;;
2005-08-20T06:08:25.745Z;0;9.5870e+00;0;     0.136;  4617.480;  28185.207; 0;  27804.402;  28185.207;  30208.830;  25591.350; 13;   5.046; 355.293; 144.614;; 153.748;  81.332;  14.939; -11.520; -11.943;   5.256;   5.049;   3.552;   3.440;  -1.008;;;;;;;;;;;;;;;;;;
2005-08-20T06:08:41.745Z;0;9.5590e+00;0;     0.143;  4636.520;  28149.168; 0;  27764.695;  28149.168;  30179.572;  25543.051; 13;   5.044; 355.406; 144.725;; 153.861;  81.448;  14.941; -11.508; -11.931;   5.253;   5.047;   3.548;   3.441;  -1.006;;;;;;;;;;;;;;;;;;
2005-08-20T06:08:57.745Z;0;9.6810e+00;0;     0.138;  4636.520;  28323.109; 0;  27941.031;  28323.109;  30355.299;  25718.779; 13;   5.042; 355.519; 144.836;; 153.974;  81.564;  14.944; -11.495; -11.918;   5.251;   5.045;   3.545;   3.442;  -1.005;;;;;;;;;;;;;;;;;;
2005-08-20T06:09:13.744Z;0;9.5070e+00;0;     0.132;  4636.520;  28073.447; 0;  27687.924;  28073.447;  30103.066;  25466.547; 13;   5.040; 355.632; 144.947;; 154.087;  81.679;  14.946; -11.483; -11.906;   5.248;   5.043;   3.541;   3.443;  -1.003;;;;;;;;;;;;;;;;;;
2005-08-20T06:09:29.744Z;0;9.4830e+00;0;     0.111;  4636.520;  28039.453; 0;  27653.455;  28039.453;  30068.719;  25432.199; 13;   5.038; 355.744; 145.058;; 154.200;  81.795;  14.949; -11.471; -11.894;   5.246;   5.041;   3.538;   3.444;  -1.002;;;;;;;;;;;;;;;;;;
2005-08-20T06:09:45.744Z;0;9.5690e+00;0;     0.116;  4655.560;  28166.662; 0;  27779.248;  28166.662;  30204.387;  25548.826; 13;   5.036; 355.857; 145.169;; 154.314;  81.911;  14.951; -11.458; -11.882;   5.243;   5.039;   3.534;   3.445;  -1.000;;;;;;;;;;;;;;;;;;
2005-08-20T06:10:01.744Z;0;9.5900e+00;0;     0.124;  4655.560;  28196.701; 0;  27809.705;  28196.701;  30234.738;  25579.178; 13;   5.034; 355.970; 145.280;; 154.427;  82.027;  14.954; -11.446; -11.869;   5.240;   5.037;   3.531;   3.446;  -0.999;;;;;;;;;;;;;;;;;;
2005-08-20T06:10:17.744Z;0;9.2310e+00;0;     0.097;  4655.560;  27678.305; 0;  27283.957;  27678.305;  29710.855;  25055.297; 13;   5.032; 356.083; 145.391;; 154.537;  82.142;  14.956; -11.433; -11.857;   5.238;   5.035;   3.527;   3.447;  -0.997;;;;;;;;;;;;;;;;;;
2005-08-20T06:10:33.744Z;0;9.5320e+00;0;     0.135;  4674.880;  28115.877; 0;  27724.502;  28115.877;  30160.303;  25485.422; 13;   5.030; 356.196; 145.502;; 154.648;  82.257;  14.959; -11.421; -11.845;   5.235;   5.033;   3.524;   3.448;  -0.996;;;;;;;;;;;;;;;;;;
2005-08-20T06:10:49.744Z;0;9.2260e+00;0;     0.107;  4674.880;  27674.160; 0;  27276.449;  27674.160;  29713.857;  25038.979; 13;   5.028; 356.308; 145.612;; 154.758;  82.371;  14.961; -11.408; -11.832;   5.233;   5.031;   3.520;   3.450;  -0.994;;;;;;;;;;;;;;;;;;
2005-08-20T06:11:05.744Z;0;9.1480e+00;0;     0.145;  4674.880;  27559.758; 0;  27160.371;  27559.758;  29598.207;  24923.326; 13;   5.026; 356.421; 145.723;; 154.869;  82.486;  14.963; -11.396; -11.820;   5.230;   5.029;   3.517;   3.451;  -0.993;;;;;;;;;;;;;;;;;;
2005-08-20T06:11:21.744Z;0;9.5810e+00;0;     0.135;  4674.880;  28185.730; 0;  27795.340;  28185.730;  30230.889;  25556.010; 13;   5.024; 356.534; 145.834;; 154.979;  82.600;  14.966; -11.383; -11.808;   5.228;   5.027;   3.513;   3.452;  -0.992;;;;;;;;;;;;;;;;;;
2005-08-20T06:11:37.744Z;0;9.6340e+00;0;     0.134;  4693.640;  28265.176; 0;  27872.744;  28265.176;  30318.189;  25624.549; 13;   5.022; 356.646; 145.945;; 155.089;  82.715;  14.968; -11.371; -11.795;   5.225;   5.024;   3.510;   3.453;  -0.990;;;;;;;;;;;;;;;;;;
2005-08-20T06:11:53.743Z;0;9.6280e+00;0;     0.140;  4693.640;  28256.355; 0;  27863.801;  28256.355;  30309.275;  25615.635; 13;   5.020; 356.759; 146.055;; 155.199;  82.829;  14.971; -11.358; -11.783;   5.223;   5.022;   3.506;   3.454;  -0.989;;;;;;;;;;;;;;;;;;
2005-08-20T06:12:09.743Z;0;9.5780e+00;0;     0.137;  4693.640;  28185.207; 0;  27791.646;  28185.207;  30237.377;  25543.738; 13;   5.018; 356.871; 146.166;; 155.309;  82.944;  14.973; -11.345; -11.771;   5.220;   5.020;   3.503;   3.455;  -0.987;;;;;;;;;;;;;;;;;;
2005-08-20T06:12:25.743Z;0;9.1780e+00;0;     0.100;  4693.640;  27606.762; 0;  27204.834;  27606.762;  29652.691;  24959.051; 13;   5.016; 356.984; 146.277;; 155.419;  83.058;  14.976; -11.333; -11.758;   5.217;   5.018;   3.499;   3.456;  -0.986;;;;;;;;;;;;;;;;;;
2005-08-20T06:12:41.743Z;0;9.5530e+00;0;     0.144;  4712.960;  28153.307; 0;  27756.021;  28153.307;  30212.354;  25499.393; 13;   5.014; 357.097; 146.387;; 155.529;  83.173;  14.979; -11.320; -11.746;   5.215;   5.016;   3.496;   3.457;  -0.984;;;;;;;;;;;;;;;;;;
2005-08-20T06:12:57.743Z;0;9.6410e+00;0;     0.140;  4712.960;  28277.758; 0;  27882.246;  28277.758;  30338.127;  25625.168; 13;   5.012; 357.209; 146.498;; 155.638;  83.287;  14.981; -11.308; -11.733;   5.212;   5.014;   3.492;   3.458;  -0.983;;;;;;;;;;;;;;;;;;
2005-08-20T06:13:13.743Z;0;9.5510e+00;0;     0.127;  4712.960;  28149.053; 0;  27751.705;  28149.053;  30208.055;  25495.094; 13;   5.010; 357.322; 146.608;; 155.748;  83.401;  14.984; -11.295; -11.721;   5.210;   5.012;   3.489;   3.459;  -0.981;;;;;;;;;;;;;;;;;;
2005-08-20T06:13:29.743Z;0;9.5800e+00;0;     0.128;  4712.960;  28191.570; 0;  27794.832;  28191.570;  30251.025;  25538.064; 13;   5.008; 357.434; 146.719;; 155.857;  83.516;  14.986; -11.282; -11.708;   5.207;   5.010;   3.485;   3.460;  -0.980;;;;;;;;;;;;;;;;;;
2005-08-20T06:13:45.743Z;0;9.6450e+00;0;     0.137;  4732.000;  28287.086; 0;  27888.482;  28287.086;  30354.664;  25622.664; 13;   5.006; 357.546; 146.830;; 155.967;  83.630;  14.989; -11.270; -11.696;   5.205;   5.008;   3.482;   3.461;  -0.978;;;;;;;;;;;;;;;;;;
2005-08-20T06:14:01.743Z;0;9.6670e+00;0;     0.127;  4732.000;  28318.922; 0;  27920.771;  28318.922;  30386.840;  25654.840; 13;   5.004; 357.659; 146.940;; 156.076;  83.744;  14.991; -11.257; -11.683;   5.202;   5.006;   3.478;   3.462;  -0.977;;;;;;;;;;;;;;;;;;
2005-08-20T06:14:17.743Z;0;9.6710e+00;0;     0.122;  4732.000;  28324.803; 0;  27926.736;  28324.803;  30392.783;  25660.783; 13;   5.002; 357.771; 147.050;; 156.185;  83.859;  14.994; -11.244; -11.671;   5.200;   5.004;   3.475;   3.463;  -0.975;;;;;;;;;;;;;;;;;;
2005-08-20T06:14:33.742Z;0;9.6510e+00;0;     0.121;  4751.040;  28299.076; 0;  27897.408;  28299.076;  30373.885;  25622.846; 13;   5.000; 357.884; 147.161;; 156.294;  83.973;  14.996; -11.232; -11.658;   5.197;   5.002;   3.471;   3.464;  -0.974;;;;;;;;;;;;;;;;;;
2005-08-20T06:14:49.742Z;0;9.7160e+00;0;     0.130;  4751.040;  28390.773; 0;  27990.420;  28390.773;  30466.564;  25715.523; 13;   4.998; 357.996; 147.271;; 156.403;  84.087;  14.999; -11.219; -11.646;   5.194;   5.000;   3.468;   3.465;  -0.972;;;;;;;;;;;;;;;;;;
2005-08-20T06:15:05.742Z;0;9.5920e+00;0;     0.122;  4751.040;  28214.262; 0;  27811.367;  28214.262;  30288.156;  25537.117; 13;   4.996; 358.108; 147.382;; 156.512;  84.201;  15.001; -11.206; -11.633;   5.192;   4.998;   3.464;   3.467;  -0.971;;;;;;;;;;;;;;;;;;
2005-08-20T06:15:21.742Z;0;9.7650e+00;0;     0.134;  4751.040;  28460.545; 0;  28061.188;  28460.545;  30537.078;  25786.037; 13;   4.994; 358.220; 147.492;; 156.621;  84.315;  15.004; -11.193; -11.621;   5.189;   4.996;   3.461;   3.468;  -0.969;;;;;;;;;;;;;;;;;;
2005-08-20T06:15:37.742Z;0;1.0190e+01;0;     0.159;  4770.080;  29053.934; 0;  28659.682;  29053.934;  31143.791;  26373.711; 13;   4.992; 358.333; 147.602;; 156.729;  84.430;  15.006; -11.181; -11.608;   5.187;   4.994;   3.457;   3.469;  -0.968;;;;;;;;;;;;;;;;;;
2005-08-20T06:15:53.742Z;0;9.8650e+00;0;     0.142;  4770.080;  28605.770; 0;  28205.254;  28605.770;  30690.955;  25920.875; 13;   4.990; 358.445; 147.713;; 156.838;  84.544;  15.009; -11.168; -11.596;   5.184;   4.992;   3.454;   3.470;  -0.966;;;;;;;;;;;;;;;;;;
2005-08-20T06:16:09.742Z;0;9.8840e+00;0;     0.137;  4770.080;  28631.555; 0;  28231.406;  28631.555;  30717.012;  25946.934; 13;   4.988; 358.557; 147.823;; 156.946;  84.658;  15.011; -11.155; -11.583;   5.182;   4.990;   3.450;   3.471;  -0.965;;;;;;;;;;;;;;;;;;
2005-08-20T06:16:25.742Z;0;1.0220e+01;0;     0.140;  4770.080;  29101.223; 0;  28707.621;  29101.223;  31191.566;  26421.486; 13;   4.986; 358.669; 147.933;; 157.055;  84.772;  15.014; -11.142; -11.570;   5.179;   4.988;   3.446;   3.472;  -0.963;;;;;;;;;;;;;;;;;;
2005-08-20T06:16:41.742Z;0;1.0390e+01;0;     0.139;  4788.840;  29344.553; 0;  28951.162;  29344.553;  31444.430;  26655.590; 13;   4.984; 358.781; 148.043;; 157.163;  84.886;  15.016; -11.129; -11.558;   5.177;   4.986;   3.443;   3.473;  -0.962;;;;;;;;;;;;;;;;;;
2005-08-20T06:16:57.742Z;0;1.0450e+01;0;     0.140;  4788.840;  29417.225; 0;  29024.818;  29417.225;  31517.836;  26728.996; 13;   4.982; 358.893; 148.153;; 157.271;  85.000;  15.019; -11.116; -11.545;   5.174;   4.984;   3.439;   3.474;  -0.960;;;;;;;;;;;;;;;;;;
2005-08-20T06:17:13.741Z;0;1.0420e+01;0;     0.130;  4788.840;  29375.641; 0;  28982.672;  29375.641;  31475.832;  26686.992; 13;   4.980; 359.005; 148.264;; 157.379;  85.114;  15.021; -11.104; -11.532;   5.172;   4.982;   3.436;   3.475;  -0.959;;;;;;;;;;;;;;;;;;
2005-08-20T06:17:29.741Z;0;1.0540e+01;0;     0.135;  4788.840;  29544.961; 0;  29154.275;  29544.961;  31646.855;  26858.016; 13;   4.978; 359.118; 148.374;; 157.487;  85.228;  15.024; -11.091; -11.520;   5.169;   4.980;   3.432;   3.476;  -0.957;;;;;;;;;;;;;;;;;;
2005-08-20T06:18:01.741Z;0;1.0600e+01;0;     0.123;  4808.440;  29633.930; 0;  29241.215;  29633.930;  31744.107;  26935.668; 13;   4.974; 359.342; 148.594;; 157.703;  85.456;  15.029; -11.065; -11.494;   5.164;   4.976;   3.425;   3.478;  -0.955;;;;;;;;;;;;;;;;;;
2005-08-20T06:18:17.741Z;0;1.0630e+01;0;     0.122;  4808.440;  29664.035; 0;  29271.725;  29664.035;  31774.514;  26966.074; 13;   4.972; 359.453; 148.704;; 157.811;  85.569;  15.032; -11.052; -11.482;   5.161;   4.974;   3.422;   3.479;  -0.953;;;;;;;;;;;;;;;;;;
2005-08-20T06:18:33.741Z;0;1.0660e+01;0;     0.137;  4827.760;  29711.512; 0;  29316.662;  29711.512;  31829.752;  27001.992; 13;   4.970; 359.565; 148.814;; 157.918;  85.683;  15.034; -11.039; -11.469;   5.159;   4.972;   3.418;   3.480;  -0.952;;;;;;;;;;;;;;;;;;
2005-08-20T06:18:49.741Z;0;1.0560e+01;0;     0.119;  4827.760;  29580.377; 0;  29183.752;  29580.377;  31697.293;  26869.533; 13;   4.968; 359.677; 148.924;; 158.026;  85.797;  15.037; -11.026; -11.456;   5.156;   4.970;   3.415;   3.481;  -0.950;;;;;;;;;;;;;;;;;;
2005-08-20T06:19:05.741Z;0;1.0700e+01;0;     0.126;  4827.760;  29771.924; 0;  29377.887;  29771.924;  31890.770;  27063.010; 13;   4.966; 359.789; 149.034;; 158.133;  85.911;  15.039; -11.013; -11.443;   5.154;   4.968;   3.411;   3.482;  -0.949;;;;;;;;;;;;;;;;;;
2005-08-20T06:19:21.741Z;0;1.0580e+01;0;     0.119;  4827.760;  29610.367; 0;  29214.150;  29610.367;  31727.586;  26899.826; 13;   4.964; 359.901; 149.144;; 158.240;  86.025;  15.042; -11.000; -11.430;   5.151;   4.966;   3.407;   3.483;  -0.947;;;;;;;;;;;;;;;;;;
2005-08-20T06:19:37.740Z;0;1.0580e+01;0;     0.119;  4847.640;  29613.297; 0;  29213.828;  29613.297;  31738.025;  26890.385; 13;   4.962;   0.013; 149.254;; 158.348;  86.138;  15.044; -10.987; -11.418;   5.149;   4.964;   3.404;   3.484;  -0.946;;;;;;;;;;;;;;;;;;
2005-08-20T06:19:53.740Z;0;1.0420e+01;0;     0.097;  4847.640;  29391.047; 0;  28988.516;  29391.047;  31513.490;  26665.850; 13;   4.960;   0.125; 149.364;; 158.455;  86.252;  15.047; -10.974; -11.405;   5.146;   4.962;   3.400;   3.485;  -0.944;;;;;;;;;;;;;;;;;;
2005-08-20T06:20:09.740Z;0;1.0740e+01;0;     0.130;  4847.640;  29823.445; 0;  29426.830;  29823.445;  31950.303;  27102.662; 13;   4.958;   0.236; 149.474;; 158.563;  86.365;  15.049; -10.961; -11.392;   5.144;   4.960;   3.397;   3.486;  -0.943;;;;;;;;;;;;;;;;;;
2005-08-20T06:20:25.740Z;0;1.0880e+01;0;     0.138;  4847.640;  30014.219; 0;  29620.156;  30014.219;  32142.982;  27295.342; 13;   4.956;   0.348; 149.583;; 158.673;  86.477;  15.052; -10.948; -11.379;   5.141;   4.958;   3.393;   3.487;  -0.941;;;;;;;;;;;;;;;;;;
2005-08-20T06:20:41.740Z;0;1.0800e+01;0;     0.131;  4867.240;  29906.318; 0;  29507.590;  29906.318;  32041.395;  27174.156; 13;   4.954;   0.460; 149.693;; 158.783;  86.589;  15.055; -10.935; -11.366;   5.139;   4.956;   3.390;   3.488;  -0.940;;;;;;;;;;;;;;;;;;
2005-08-20T06:20:57.740Z;0;1.1160e+01;0;     0.135;  4867.240;  30385.426; 0;  29993.066;  30385.426;  32525.256;  27658.016; 13;   4.952;   0.572; 149.803;; 158.893;  86.701;  15.057; -10.922; -11.353;   5.136;   4.954;   3.386;   3.489;  -0.938;;;;;;;;;;;;;;;;;;
2005-08-20T06:21:13.740Z;0;1.1170e+01;0;     0.127;  4867.240;  30405.689; 0;  30013.596;  30405.689;  32545.719;  27678.479; 13;   4.950;   0.683; 149.913;; 159.002;  86.813;  15.060; -10.909; -11.341;   5.134;   4.952;   3.383;   3.490;  -0.937;;;;;;;;;;;;;;;;;;
2005-08-20T06:21:29.740Z;0;1.1290e+01;0;     0.134;  4867.240;  30557.775; 0;  30167.658;  30557.775;  32699.279;  27832.039; 13;   4.948;   0.795; 150.022;; 159.112;  86.925;  15.062; -10.896; -11.328;   5.131;   4.950;   3.379;   3.491;  -0.935;;;;;;;;;;;;;;;;;;
2005-08-20T06:21:45.740Z;0;1.1230e+01;0;     0.121;  4887.120;  30488.764; 0;  30094.531;  30488.764;  32637.131;  27750.012; 13;   4.946;   0.906; 150.132;; 159.222;  87.037;  15.065; -10.883; -11.315;   5.129;   4.948;   3.375;   3.492;  -0.934;;;;;;;;;;;;;;;;;;
2005-08-20T06:22:01.740Z;0;1.1450e+01;0;     0.124;  4887.120;  30781.854; 0;  30391.422;  30781.854;  32933.059;  28045.939; 13;   4.944;   1.018; 150.242;; 159.332;  87.148;  15.067; -10.869; -11.302;   5.126;   4.946;   3.372;   3.493;  -0.932;;;;;;;;;;;;;;;;;;
2005-08-20T06:22:17.739Z;0;1.1500e+01;0;     0.119;  4887.120;  30842.697; 0;  30453.047;  30842.697;  32994.484;  28107.365; 13;   4.942;   1.130; 150.351;; 159.442;  87.260;  15.070; -10.856; -11.289;   5.124;   4.944;   3.368;   3.494;  -0.931;;;;;;;;;;;;;;;;;;
2005-08-20T06:22:33.739Z;0;1.1470e+01;0;     0.119;  4907.000;  30812.506; 0;  30419.268;  30812.506;  32971.551;  28064.553; 13;   4.940;   1.241; 150.461;; 159.552;  87.371;  15.073; -10.843; -11.276;   5.121;   4.942;   3.365;   3.495;  -0.929;;;;;;;;;;;;;;;;;;
2005-08-20T06:22:49.739Z;0;1.1480e+01;0;     0.115;  4907.000;  30814.238; 0;  30421.023;  30814.238;  32973.301;  28066.301; 13;   4.938;   1.353; 150.571;; 159.662;  87.483;  15.075; -10.830; -11.263;   5.119;   4.940;   3.361;   3.496;  -0.928;;;;;;;;;;;;;;;;;;
2005-08-20T06:23:05.739Z;0;1.1610e+01;0;     0.115;  4907.000;  30982.916; 0;  30591.869;  30982.916;  33143.598;  28236.598; 13;   4.936;   1.464; 150.680;; 159.772;  87.594;  15.078; -10.817; -11.250;   5.116;   4.938;   3.358;   3.497;  -0.926;;;;;;;;;;;;;;;;;;
2005-08-20T06:23:21.739Z;0;1.1610e+01;0;     0.110;  4907.000;  30988.055; 0;  30597.072;  30988.055;  33148.785;  28241.785; 13;   4.934;   1.576; 150.790;; 159.883;  87.705;  15.080; -10.803; -11.237;   5.114;   4.936;   3.354;   3.498;  -0.925;;;;;;;;;;;;;;;;;;
2005-08-20T06:23:37.739Z;0;1.1640e+01;0;     0.113;  4926.600;  31034.344; 0;  30640.809;  31034.344;  33202.965;  28276.363; 13;   4.932;   1.687; 150.899;; 159.993;  87.816;  15.083; -10.790; -11.224;   5.111;   4.934;   3.351;   3.499;  -0.923;;;;;;;;;;;;;;;;;;
2005-08-20T06:23:53.739Z;0;1.1710e+01;0;     0.111;  4926.600;  31119.900; 0;  30727.461;  31119.900;  33289.340;  28362.738; 13;   4.930;   1.798; 151.009;; 160.103;  87.927;  15.085; -10.777; -11.211;   5.109;   4.932;   3.347;   3.500;  -0.922;;;;;;;;;;;;;;;;;;
2005-08-20T06:24:09.739Z;0;1.1680e+01;0;     0.115;  4926.600;  31079.369; 0;  30686.410;  31079.369;  33248.422;  28321.820; 13;   4.928;   1.910; 151.118;; 160.214;  88.038;  15.088; -10.764; -11.198;   5.106;   4.930;   3.343;   3.501;  -0.920;;;;;;;;;;;;;;;;;;
2005-08-20T06:24:25.739Z;0;1.1690e+01;0;     0.116;  4926.600;  31094.236; 0;  30701.469;  31094.236;  33263.430;  28336.830; 13;   4.926;   2.021; 151.227;; 160.324;  88.149;  15.091; -10.750; -11.185;   5.103;   4.928;   3.340;   3.502;  -0.919;;;;;;;;;;;;;;;;;;
2005-08-20T06:24:41.739Z;0;1.2120e+01;0;     0.141;  4946.480;  31646.674; 0;  31257.707;  31646.674;  33828.641;  28882.162; 13;   4.924;   2.132; 151.337;; 160.434;  88.259;  15.093; -10.737; -11.171;   5.101;   4.926;   3.336;   3.503;  -0.917;;;;;;;;;;;;;;;;;;
2005-08-20T06:24:57.738Z;0;1.1790e+01;0;     0.123;  4946.480;  31227.629; 0;  30833.377;  31227.629;  33405.652;  28459.172; 13;   4.922;   2.244; 151.446;; 160.545;  88.370;  15.096; -10.724; -11.158;   5.098;   4.924;   3.333;   3.504;  -0.916;;;;;;;;;;;;;;;;;;
2005-08-20T06:25:29.738Z;0;1.2410e+01;0;     0.132;  4946.480;  32022.254; 0;  31637.906;  32022.254;  34207.668;  29261.189; 13;   4.918;   2.466; 151.665;; 160.766;  88.591;  15.101; -10.697; -11.132;   5.093;   4.920;   3.326;   3.506;  -0.913;;;;;;;;;;;;;;;;;;
2005-08-20T06:25:45.738Z;0;1.2430e+01;0;     0.117;  4966.640;  32049.895; 0;  31662.727;  32049.895;  34243.281;  29276.641; 13;   4.916;   2.577; 151.774;; 160.876;  88.701;  15.104; -10.684; -11.119;   5.091;   4.918;   3.322;   3.507;  -0.911;;;;;;;;;;;;;;;;;;
2005-08-20T06:26:01.738Z;0;1.2470e+01;0;     0.115;  4966.640;  32101.057; 0;  31714.514;  32101.057;  34294.910;  29328.270; 13;   4.914;   2.688; 151.883;; 160.987;  88.811;  15.106; -10.670; -11.106;   5.088;   4.916;   3.318;   3.508;  -0.910;;;;;;;;;;;;;;;;;;
2005-08-20T06:26:17.738Z;0;1.2480e+01;0;     0.116;  4966.640;  32115.787; 0;  31729.422;  32115.787;  34309.773;  29343.133; 13;   4.912;   2.800; 151.993;; 161.098;  88.921;  15.109; -10.657; -11.092;   5.086;   4.914;   3.315;   3.509;  -0.908;;;;;;;;;;;;;;;;;;
2005-08-20T06:26:33.738Z;0;1.2450e+01;0;     0.110;  4987.080;  32074.447; 0;  31684.369;  32074.447;  34275.879;  29288.797; 13;   4.910;   2.911; 152.102;; 161.208;  89.031;  15.111; -10.644; -11.079;   5.083;   4.912;   3.311;   3.510;  -0.907;;;;;;;;;;;;;;;;;;
2005-08-20T06:26:49.738Z;0;1.2520e+01;0;     0.115;  4987.080;  32167.758; 0;  31778.824;  32167.758;  34370.043;  29382.963; 13;   4.908;   3.022; 152.211;; 161.319;  89.141;  15.114; -10.630; -11.066;   5.081;   4.910;   3.308;   3.511;  -0.905;;;;;;;;;;;;;;;;;;
2005-08-20T06:27:05.738Z;0;1.2490e+01;0;     0.115;  4987.080;  32126.838; 0;  31737.402;  32126.838;  34328.750;  29341.668; 13;   4.906;   3.133; 152.320;; 161.430;  89.251;  15.117; -10.617; -11.053;   5.078;   4.908;   3.304;   3.512;  -0.904;;;;;;;;;;;;;;;;;;
2005-08-20T06:27:21.738Z;0;1.2470e+01;0;     0.118;  4987.080;  32105.621; 0;  31715.926;  32105.621;  34307.336;  29320.258; 13;   4.904;   3.244; 152.429;; 161.541;  89.360;  15.119; -10.603; -11.040;   5.076;   4.906;   3.300;   3.513;  -0.902;;;;;;;;;;;;;;;;;;
2005-08-20T06:27:53.737Z;0;1.2550e+01;0;     0.119;  5008.080;  32204.156; 0;  31812.369;  32204.156;  34414.809;  29406.727; 13;   4.900;   3.466; 152.647;; 161.763;  89.579;  15.124; -10.576; -11.013;   5.071;   4.902;   3.293;   3.515;  -0.899;;;;;;;;;;;;;;;;;;
2005-08-20T06:28:09.737Z;0;1.2580e+01;0;     0.118;  5008.080;  32243.875; 0;  31852.576;  32243.875;  34454.891;  29446.811; 13;   4.898;   3.577; 152.756;; 161.874;  89.689;  15.127; -10.563; -11.000;   5.068;   4.900;   3.290;   3.516;  -0.898;;;;;;;;;;;;;;;;;;
2005-08-20T06:28:25.737Z;0;1.2610e+01;0;     0.116;  5008.080;  32278.529; 0;  31887.656;  32278.529;  34489.863;  29481.781; 13;   4.896;   3.688; 152.865;; 161.985;  89.798;  15.130; -10.549; -10.986;   5.066;   4.898;   3.286;   3.517;  -0.896;;;;;;;;;;;;;;;;;;
2005-08-20T06:28:41.737Z;0;1.2540e+01;0;     0.112;  5028.520;  32200.930; 0;  31805.877;  32200.930;  34419.359;  29390.840; 13;   4.894;   3.798; 152.974;; 162.096;  89.907;  15.132; -10.536; -10.973;   5.064;   4.896;   3.282;   3.518;  -0.895;;;;;;;;;;;;;;;;;;
2005-08-20T06:28:57.737Z;0;1.2600e+01;0;     0.107;  5028.520;  32276.184; 0;  31882.064;  32276.184;  34495.309;  29466.789; 13;   4.892;   3.909; 153.083;; 162.207;  90.016;  15.135; -10.522; -10.960;   5.061;   4.894;   3.279;   3.519;  -0.893;;;;;;;;;;;;;;;;;;
2005-08-20T06:29:13.737Z;0;1.2560e+01;0;     0.108;  5028.520;  32217.957; 0;  31823.117;  32217.957;  34436.543;  29408.025; 13;   4.890;   4.020; 153.192;; 162.318;  90.125;  15.138; -10.509; -10.946;   5.059;   4.892;   3.275;   3.520;  -0.892;;;;;;;;;;;;;;;;;;
2005-08-20T06:29:29.737Z;0;1.2700e+01;0;     0.114;  5028.520;  32399.902; 0;  32007.307;  32399.902;  34620.164;  29591.645; 13;   4.888;   4.131; 153.301;; 162.429;  90.234;  15.140; -10.495; -10.933;   5.056;   4.890;   3.272;   3.521;  -0.890;;;;;;;;;;;;;;;;;;
2005-08-20T06:29:45.737Z;0;1.2770e+01;0;     0.110;  5049.240;  32485.852; 0;  32091.053;  32485.852;  34714.828;  29665.588; 13;   4.886;   4.242; 153.410;; 162.540;  90.343;  15.143; -10.482; -10.920;   5.054;   4.888;   3.268;   3.522;  -0.889;;;;;;;;;;;;;;;;;;